| time (UTC) | temp C | wind direction | speed KPH | gust KPH | rain 1hr cm | rain 24hr cm | rain mn cm | humidity % | barometer mb |
| 20260904130025 | 21 | 90 | 0.0 | 3.2 | 0.00 | 0.30 | 0.00 | 99 | 1018.8 |
| 20260904125029 | 21 | 203 | 0.0 | 1.6 | 0.00 | 0.30 | 0.00 | 99 | 1019.0 |
| 20260904124016 | 21 | 0.0 | 0.0 | 0.00 | 0.30 | 0.00 | 99 | 1019.1 | |
| 20260904123021 | 21 | 0.0 | 0.0 | 0.00 | 0.30 | 0.00 | 99 | 1019.0 | |
| 20260904122026 | 20 | 0.0 | 0.0 | 0.00 | 0.30 | 0.00 | 99 | 1018.6 | |
| 20260904121031 | 20 | 315 | 0.0 | 3.2 | 0.00 | 0.30 | 0.00 | 99 | 1018.6 |
| 20260904120039 | 20 | 0.0 | 0.0 | 0.00 | 0.30 | 0.00 | 99 | 1018.8 | |
| 20260904115043 | 20 | 0.0 | 1.6 | 0.00 | 0.30 | 0.00 | 99 | 1018.8 | |
| 20260904114028 | 20 | 0.0 | 0.0 | 0.00 | 0.30 | 0.00 | 99 | 1018.8 | |
| 20260904113053 | 20 | 196 | 1.6 | 6.4 | 0.00 | 0.30 | 0.00 | 99 | 1018.6 |
| 20260904112020 | 19 | 0.0 | 0.0 | 0.00 | 0.36 | 0.00 | 99 | 1018.8 | |
| 20260904111024 | 19 | 0.0 | 0.0 | 0.00 | 0.36 | 0.00 | 99 | 1018.6 | |
| 20260904110049 | 19 | 113 | 0.0 | 3.2 | 0.00 | 0.36 | 0.00 | 99 | 1018.1 |
| 20260904105017 | 19 | 0.0 | 1.6 | 0.00 | 0.38 | 0.00 | 99 | 1018.1 | |
| 20260904104021 | 19 | 0.0 | 0.0 | 0.00 | 0.41 | 0.00 | 99 | 1018.1 | |
| 20260904103047 | 19 | 158 | 1.6 | 4.8 | 0.00 | 0.46 | 0.00 | 99 | 1018.1 |
| 20260904102031 | 19 | 0.0 | 0.0 | 0.00 | 0.46 | 0.00 | 99 | 1017.9 | |
| 20260904101018 | 20 | 0.0 | 0.0 | 0.00 | 0.46 | 0.00 | 99 | 1017.8 | |
| 20260904100043 | 20 | 0.0 | 0.0 | 0.00 | 0.46 | 0.00 | 99 | 1017.9 | |
| 20260904095027 | 20 | 0.0 | 0.0 | 0.00 | 0.46 | 0.00 | 99 | 1017.9 | |
| 20260904094032 | 20 | 0.0 | 0.0 | 0.00 | 0.66 | 0.00 | 99 | 1017.9 | |
| 20260904093019 | 20 | 0.0 | 0.0 | 0.00 | 0.89 | 0.00 | 99 | 1017.9 | |
| 20260904092025 | 20 | 0.0 | 0.0 | 0.00 | 0.89 | 0.00 | 99 | 1017.8 | |
| 20260904091029 | 20 | 0.0 | 0.0 | 0.00 | 0.89 | 0.00 | 99 | 1017.8 | |
| 20260904090037 | 20 | 169 | 1.6 | 4.8 | 0.00 | 0.91 | 0.00 | 99 | 1017.8 |
| 20260904085042 | 20 | 203 | 0.0 | 1.6 | 0.00 | 0.91 | 0.00 | 99 | 1017.8 |
| 20260904084026 | 20 | 203 | 0.0 | 4.8 | 0.00 | 0.91 | 0.00 | 99 | 1017.8 |
| 20260904083031 | 20 | 180 | 0.0 | 3.2 | 0.00 | 0.91 | 0.00 | 99 | 1017.6 |
| 20260904082018 | 20 | 270 | 1.6 | 4.8 | 0.00 | 0.91 | 0.00 | 99 | 1017.6 |
| 20260904081023 | 20 | 226 | 1.6 | 4.8 | 0.00 | 0.91 | 0.00 | 99 | 1017.6 |
| 20260904080028 | 20 | 225 | 1.6 | 4.8 | 0.00 | 0.91 | 0.00 | 99 | 1017.6 |
| 20260904075027 | 20 | 252 | 0.0 | 3.2 | 0.00 | 0.91 | 0.00 | 99 | 1017.4 |
| 20260904074100 | 20 | 187 | 1.6 | 4.8 | 0.00 | 0.91 | 0.00 | 99 | 1017.2 |
| 20260904073024 | 20 | 196 | 1.6 | 4.8 | 0.00 | 0.91 | 0.00 | 99 | 1017.2 |
| 20260904072043 | 20 | 222 | 4.8 | 6.4 | 0.00 | 0.91 | 0.00 | 99 | 1017.2 |
| 20260904071017 | 20 | 194 | 3.2 | 6.4 | 0.00 | 0.91 | 0.00 | 99 | 1017.0 |
| 20260904070021 | 20 | 175 | 4.8 | 8.0 | 0.00 | 0.91 | 0.00 | 99 | 1016.8 |
| 20260904065020 | 20 | 223 | 1.6 | 4.8 | 0.00 | 0.91 | 0.00 | 99 | 1016.8 |
| 20260904064019 | 20 | 183 | 3.2 | 6.4 | 0.00 | 0.91 | 0.00 | 99 | 1016.7 |
| 20260904063019 | 20 | 240 | 3.2 | 8.0 | 0.00 | 0.91 | 0.00 | 99 | 1016.5 |
| 20260904062017 | 20 | 245 | 6.4 | 11.3 | 0.00 | 0.91 | 0.00 | 99 | 1016.1 |
| 20260904061016 | 20 | 255 | 3.2 | 6.4 | 0.00 | 0.91 | 0.00 | 99 | 1016.3 |
| 20260904060016 | 20 | 192 | 4.8 | 6.4 | 0.00 | 0.91 | 0.00 | 99 | 1016.5 |
| 20260904055020 | 20 | 222 | 6.4 | 11.3 | 0.00 | 0.91 | 0.00 | 99 | 1016.8 |
| 20260904054025 | 20 | 266 | 6.4 | 9.7 | 0.00 | 0.91 | 0.00 | 99 | 1017.0 |
| 20260904053030 | 20 | 232 | 4.8 | 11.3 | 0.00 | 0.91 | 0.00 | 99 | 1017.1 |
| 20260904052017 | 20 | 242 | 4.8 | 12.9 | 0.00 | 0.91 | 0.00 | 99 | 1016.7 |
| 20260904051022 | 20 | 207 | 6.4 | 9.7 | 0.00 | 0.91 | 0.00 | 99 | 1017.2 |
| 20260904050027 | 20 | 251 | 6.4 | 8.0 | 0.00 | 0.91 | 0.00 | 99 | 1017.1 |
| 20260904045052 | 20 | 199 | 3.2 | 6.4 | 0.00 | 0.91 | 0.00 | 99 | 1017.1 |
| 20260904044018 | 20 | 203 | 0.0 | 3.2 | 0.03 | 0.91 | 0.00 | 99 | 1017.2 |
| 20260904043023 | 20 | 181 | 3.2 | 6.4 | 0.03 | 0.91 | 0.00 | 99 | 1017.2 |
| 20260904042029 | 20 | 174 | 4.8 | 8.0 | 0.05 | 0.91 | 0.00 | 99 | 1017.6 |
| 20260904041015 | 20 | 180 | 0.0 | 3.2 | 0.05 | 0.91 | 0.00 | 99 | 1017.9 |
| 20260904040020 | 20 | 174 | 1.6 | 4.8 | 0.05 | 0.91 | 0.00 | 99 | 1018.1 |
| 20260904035045 | 20 | 176 | 1.6 | 4.8 | 0.08 | 0.91 | 0.91 | 99 | 1018.4 |
| 20260904034031 | 20 | 154 | 3.2 | 4.8 | 0.05 | 0.89 | 0.89 | 99 | 1018.6 |
| 20260904032534 | 21 | 135 | 4.8 | 6.4 | 0.05 | 0.86 | 0.86 | 99 | 1019.6 |
| 20260904025530 | 22 | 162 | 6.4 | 9.7 | 0.05 | 0.86 | 0.86 | 96 | 1020.0 |
| 20260904024517 | 22 | 4.8 | 4.8 | 0.03 | 0.84 | 0.84 | 99 | 1019.9 | |
| 20260904023522 | 22 | 223 | 8.0 | 17.7 | 0.03 | 0.84 | 0.84 | 97 | 1019.6 |
| 20260904022527 | 22 | 245 | 1.6 | 3.2 | 0.00 | 0.81 | 0.81 | 99 | 1019.0 |
| 20260904021532 | 23 | 264 | 3.2 | 3.2 | 0.00 | 0.81 | 0.81 | 98 | 1018.5 |
| 20260904020519 | 23 | 239 | 3.2 | 4.8 | 0.00 | 0.81 | 0.81 | 97 | 1017.9 |
| 20260904015545 | 25 | 167 | 4.8 | 6.4 | 0.00 | 0.81 | 0.81 | 93 | 1017.8 |
| 20260904014530 | 25 | 272 | 6.4 | 12.9 | 0.00 | 0.81 | 0.81 | 91 | 1018.8 |
| 20260904013538 | 25 | 270 | 12.9 | 19.3 | 0.00 | 0.81 | 0.81 | 99 | 1018.1 |
| 20260904012521 | 25 | 183 | 3.2 | 6.4 | 0.00 | 0.81 | 0.81 | 99 | 1018.0 |
| 20260904011527 | 24 | 0.0 | 3.2 | 0.00 | 0.81 | 0.81 | 99 | 1017.8 | |
| 20260904010551 | 24 | 0.0 | 0.0 | 0.00 | 0.81 | 0.81 | 99 | 1017.6 | |
| 20260904005519 | 24 | 0.0 | 0.0 | 0.00 | 0.81 | 0.81 | 99 | 1017.6 | |
| 20260904004523 | 25 | 0.0 | 0.0 | 0.00 | 0.81 | 0.81 | 99 | 1017.6 | |
| 20260904003529 | 25 | 0.0 | 0.0 | 0.00 | 0.81 | 0.81 | 99 | 1017.6 | |
| 20260904002516 | 25 | 0.0 | 0.0 | 0.00 | 0.81 | 0.81 | 99 | 1017.7 | |
| 20260904001520 | 25 | 0.0 | 0.0 | 0.00 | 0.81 | 0.81 | 99 | 1017.8 | |
| 20260904000526 | 25 | 0.0 | 0.0 | 0.00 | 0.81 | 0.81 | 99 | 1017.8 | |
| 20260903235531 | 25 | 0.0 | 0.0 | 0.00 | 0.81 | 0.81 | 99 | 1018.1 | |
| 20260903234518 | 25 | 0.0 | 0.0 | 0.00 | 0.81 | 0.81 | 99 | 1018.1 | |
| 20260903233522 | 26 | 0.0 | 0.0 | 0.00 | 0.81 | 0.81 | 99 | 1017.6 | |
| 20260903232528 | 26 | 0.0 | 0.0 | 0.00 | 0.81 | 0.81 | 98 | 1017.2 | |
| 20260903231547 | 27 | 0.0 | 0.0 | 0.00 | 0.81 | 0.81 | 97 | 1017.1 | |
| 20260903230520 | 27 | 0.0 | 0.0 | 0.00 | 0.81 | 0.81 | 94 | 1017.1 | |
| 20260903225525 | 28 | 0.0 | 0.0 | 0.00 | 0.81 | 0.81 | 92 | 1017.4 | |
| 20260903224524 | 29 | 0.0 | 0.0 | 0.00 | 0.81 | 0.81 | 89 | 1017.2 | |
| 20260903223516 | 29 | 210 | 0.0 | 3.2 | 0.00 | 0.81 | 0.81 | 86 | 1017.3 |
| 20260903222521 | 30 | 207 | 3.2 | 4.8 | 0.00 | 0.81 | 0.81 | 84 | 1017.0 |
| 20260903221521 | 30 | 226 | 4.8 | 8.0 | 0.00 | 0.81 | 0.81 | 83 | 1017.0 |
| 20260903220519 | 31 | 227 | 4.8 | 6.4 | 0.00 | 0.81 | 0.81 | 81 | 1017.0 |
| 20260903215519 | 31 | 215 | 4.8 | 8.0 | 0.00 | 0.81 | 0.81 | 81 | 1016.9 |
| 20260903214517 | 31 | 201 | 4.8 | 9.7 | 0.00 | 0.81 | 0.81 | 80 | 1017.0 |
| 20260903213517 | 30 | 194 | 6.4 | 11.3 | 0.00 | 0.81 | 0.81 | 81 | 1017.0 |
| 20260903212516 | 30 | 198 | 4.8 | 11.3 | 0.00 | 0.81 | 0.81 | 83 | 1017.0 |
| 20260903211521 | 30 | 224 | 8.0 | 14.5 | 0.00 | 0.81 | 0.81 | 82 | 1017.1 |
| 20260903210546 | 30 | 226 | 6.4 | 12.9 | 0.00 | 0.81 | 0.81 | 82 | 1017.1 |
| 20260903205551 | 30 | 178 | 9.7 | 14.5 | 0.00 | 0.81 | 0.81 | 83 | 1017.1 |
| 20260903204519 | 30 | 223 | 8.0 | 12.9 | 0.00 | 0.81 | 0.81 | 81 | 1017.2 |
| 20260903203523 | 30 | 194 | 6.4 | 9.7 | 0.00 | 0.81 | 0.81 | 82 | 1017.3 |
| 20260903202528 | 29 | 235 | 6.4 | 11.3 | 0.00 | 0.81 | 0.81 | 82 | 1017.6 |
| 20260903201535 | 30 | 237 | 9.7 | 14.5 | 0.00 | 0.81 | 0.81 | 80 | 1017.6 |
| 20260903200520 | 30 | 229 | 9.7 | 12.9 | 0.00 | 0.81 | 0.81 | 80 | 1017.6 |
| 20260903195525 | 29 | 222 | 8.0 | 11.3 | 0.00 | 0.81 | 0.81 | 81 | 1017.8 |
| 20260903194550 | 29 | 189 | 8.0 | 16.1 | 0.00 | 0.81 | 0.81 | 82 | 1017.8 |
| 20260903193517 | 29 | 210 | 9.7 | 24.1 | 0.00 | 0.81 | 0.81 | 82 | 1018.1 |
| 20260903192522 | 28 | 226 | 9.7 | 14.5 | 0.00 | 0.81 | 0.81 | 83 | 1018.1 |
| 20260903191527 | 28 | 203 | 9.7 | 16.1 | 0.00 | 0.81 | 0.81 | 84 | 1018.2 |
| 20260903190532 | 28 | 265 | 9.7 | 17.7 | 0.00 | 0.81 | 0.81 | 84 | 1018.3 |
| 20260903185539 | 28 | 248 | 8.0 | 11.3 | 0.00 | 0.81 | 0.81 | 82 | 1018.3 |
| 20260903184524 | 28 | 259 | 9.7 | 14.5 | 0.00 | 0.81 | 0.81 | 82 | 1018.6 |
| 20260903183529 | 28 | 250 | 9.7 | 20.9 | 0.00 | 0.81 | 0.81 | 81 | 1018.8 |
| 20260903182516 | 28 | 241 | 9.7 | 12.9 | 0.00 | 0.81 | 0.81 | 82 | 1018.8 |
| 20260903181521 | 28 | 206 | 8.0 | 12.9 | 0.00 | 0.81 | 0.81 | 83 | 1018.9 |
| 20260903180526 | 27 | 213 | 8.0 | 12.9 | 0.00 | 0.81 | 0.81 | 84 | 1019.1 |
| 20260903175532 | 27 | 224 | 9.7 | 16.1 | 0.00 | 0.81 | 0.81 | 84 | 1019.2 |
| 20260903174518 | 27 | 226 | 9.7 | 14.5 | 0.00 | 0.81 | 0.81 | 86 | 1019.4 |
| 20260903173524 | 27 | 242 | 11.3 | 14.5 | 0.00 | 0.81 | 0.81 | 86 | 1019.5 |
| 20260903172528 | 27 | 244 | 11.3 | 17.7 | 0.00 | 0.81 | 0.81 | 87 | 1019.5 |
| 20260903171533 | 27 | 223 | 11.3 | 17.7 | 0.00 | 0.86 | 0.81 | 85 | 1019.5 |
| 20260903170520 | 26 | 255 | 11.3 | 17.7 | 0.00 | 0.86 | 0.81 | 87 | 1019.6 |
| 20260903165525 | 26 | 232 | 11.3 | 19.3 | 0.00 | 0.91 | 0.81 | 89 | 1019.9 |
| 20260903164530 | 26 | 206 | 8.0 | 14.5 | 0.00 | 0.94 | 0.81 | 90 | 1020.0 |
| 20260903163517 | 25 | 260 | 8.0 | 9.7 | 0.00 | 0.97 | 0.81 | 93 | 1020.1 |
| 20260903162602 | 25 | 206 | 9.7 | 14.5 | 0.00 | 1.02 | 0.81 | 93 | 1020.4 |
| 20260903161547 | 25 | 261 | 11.3 | 19.3 | 0.00 | 1.07 | 0.81 | 93 | 1020.6 |
| 20260903160532 | 25 | 276 | 9.7 | 24.1 | 0.00 | 1.14 | 0.81 | 94 | 1020.6 |
| 20260903155519 | 24 | 217 | 12.9 | 17.7 | 0.00 | 1.27 | 0.81 | 97 | 1020.9 |
| 20260903154524 | 25 | 266 | 14.5 | 20.9 | 0.05 | 1.63 | 0.81 | 97 | 1021.5 |
| 20260903153528 | 23 | 249 | 11.3 | 17.7 | 0.05 | 1.63 | 0.81 | 99 | 1020.7 |
| 20260903152516 | 23 | 255 | 8.0 | 11.3 | 0.10 | 1.63 | 0.81 | 99 | 1020.6 |
| 20260903151541 | 23 | 260 | 4.8 | 8.0 | 0.10 | 1.63 | 0.81 | 99 | 1020.4 |
| 20260903150526 | 22 | 165 | 1.6 | 3.2 | 0.15 | 1.63 | 0.81 | 99 | 1020.2 |
| 20260903145530 | 21 | 192 | 8.0 | 12.9 | 0.20 | 1.63 | 0.81 | 99 | 1020.4 |
| 20260903144538 | -17 | 0.0 | 0.0 | 0.15 | 1.57 | 0.76 | 1021.0 | ||
| 20260903143522 | -17 | 0.0 | 0.0 | 0.15 | 1.57 | 0.76 | 1022.0 | ||
| 20260903142528 | 21 | 4.8 | 4.8 | 0.10 | 1.52 | 0.71 | 99 | 1022.6 | |
| 20260903141533 | 21 | 184 | 3.2 | 4.8 | 0.10 | 1.52 | 0.71 | 99 | 1022.9 |
| 20260903140520 | 22 | 310 | 8.0 | 14.5 | 0.05 | 1.47 | 0.66 | 99 | 1023.2 |
| 20260903135524 | 22 | 337 | 11.3 | 20.9 | 0.00 | 1.42 | 0.61 | 99 | 1020.9 |
| 20260903134530 | 22 | 266 | 6.4 | 9.7 | 0.00 | 1.42 | 0.61 | 99 | 1020.8 |
| 20260903133536 | 22 | 266 | 8.0 | 11.3 | 0.00 | 1.42 | 0.61 | 99 | 1020.5 |
| 20260903132521 | 22 | 239 | 6.4 | 11.3 | 0.00 | 1.42 | 0.61 | 99 | 1020.8 |
| 20260903131527 | 22 | 250 | 8.0 | 14.5 | 0.00 | 1.42 | 0.61 | 99 | 1020.8 |